THOR AGENA B R/B, 741

Orbit data source: Space-Track

THOR AGENA B R/B, 741 is space debris in LEO originally from a launch on Sat, 25 Jan 1964 UTC launched from the Air Force Western Test Range (AFWTR). Debris objects in space refer to the collection of defunct objects orbiting the Earth. Examples of debris include non-operational satellites, rocket bodies, and fragments generated from explosions, collisions, or faulty payload assembly.

Loading next visibility...
Identifier
741, 1964-004B
Orbit
LEO
Country
Flag of USUS
Related business
Manufacturer
LMSC
Mission
Spacecraft
Bus & Motor
AGENA B, Unknown motor
Mass
~705 kg wet, 705 kg dry
Launch date (UTC)
1964-01-25 (62 years ago)
Launch vehicle
Unknown
Launch site
Air Force Western Test Range (AFWTR)
Object type
Payload
Rocket body
Debris
Shape & HBR
Unknown
Radar Cross Section
Large (>1 m²)

Expand to show TLE details & history
Last TLE update: 9 hours ago

TLE from 9 hours ago
0 THOR AGENA B R/B
1   741U 64004B   25295.17358756  .00000039  00000-0  57299-4 0  9999
2   741  81.4940 357.2648 0172982 115.5529 304.3863 13.23815060981578
Epoch: 2025-10-22T04:09Z
TLE epoch observation values (Epoch: 2025-10-22T04:09:57.965Z)
Latitude
57.3732°
Longitude
-82.63821°
Altitude
1,107.561 km
Speed
7.339 km/s
True Right ascension
00h 42m 49s
True Declination
57° 13' 27"
Sunlit
Object was in full shadow at epoch
Visualization orbit readout
Latitude
Unknown
Longitude
Unknown
Altitude
Unknown
Speed
Unknown
Apparent Right ascension
Unknown
Apparent Declination
Unknown
Sunlit
N/A
Visualization observer readout
Local Sidereal Time
08:40:51
Azimuth
Unknown
Elevation
Unknown
Doppler factor
Unknown
Orbital elements
Apogee altitude
1,297.986 km
Perigee altitude
1,036.936 km
Semi-major axis
7,545.598 km
Eccentricity
0.0173
Inclination
81.494°
RAAN
357.2648°
Arg. of periapsis
115.5529°
True anomaly
302.73049°
Mean anomaly
304.3863°
Eccentric anomaly
303.5604°
Mean motion
3.31133 °/min
Orbital period
108.72 mins
BSTAR
0.000057299
Loading maneuver chart data...
Computing Atmospheric mass density...
Loading historical data...
Loading historical data...
Loading historical data...
Loading historical data...
Loading historical data...
Loading historical data...
Loading historical data...

Documentation

Showing up to 5 results
|